Location: Unspecified
(55.9500°N, 0.0000°E)
Time: 04:18:18
(UTC+00:00)

Envisat - Visible Passes

Search period start: 16 October 2019 00:00
Search period end: 26 October 2019 00:00
Orbit: 764 x 766 km, 98.1° (Epoch: 15 October)

Date Brightness Start Highest point End Pass type
(mag) Time Alt. Az. Time Alt. Az. Time Alt. Az.
16 Oct 6.4 05:23:00 10° ENE 05:25:08 12° E 05:27:16 10° ESE visible
16 Oct 4.1 18:22:38 10° S 18:27:34 49° W 18:32:31 10° NNW visible
17 Oct 3.1 17:45:35 10° SSE 17:50:41 89° WSW 17:55:49 10° NNW visible
17 Oct 5.8 19:27:02 10° SW 19:30:28 18° W 19:33:54 10° NW visible
18 Oct 6.0 05:47:24 10° NE 05:51:03 19° E 05:54:40 10° SE visible
18 Oct 4.9 18:48:43 10° SSW 18:53:15 32° W 18:57:50 10° NNW visible
19 Oct 6.7 05:13:12 10° ENE 05:13:40 10° E 05:14:08 10° E visible
19 Oct 3.7 18:11:14 10° S 18:16:14 59° W 18:21:18 10° NNW visible
19 Oct 6.2 19:54:45 10° W 19:56:23 11° W 19:58:02 10° WNW visible
20 Oct 3.0 17:34:21 10° SSE 17:39:25 78° ENE 17:44:32 10° NNW visible
20 Oct 5.6 19:15:11 10° SW 19:19:02 21° W 19:22:55 10° NW visible
21 Oct 6.1 05:36:28 10° NE 05:39:38 16° E 05:42:46 10° ESE visible
21 Oct 4.5 18:37:10 10° SSW 18:41:54 38° W 18:46:40 10° NNW visible
22 Oct 3.3 17:59:52 10° S 18:04:56 71° WSW 18:10:03 10° NNW visible
22 Oct 6.1 19:42:20 10° WSW 19:44:56 14° W 19:47:33 10° NW visible
23 Oct 5.7 06:01:20 10° NE 06:05:29 25° E 06:09:38 10° SE visible
23 Oct 3.0 17:23:08 10° SSE 17:28:10 66° ENE 17:33:14 10° NNW visible
23 Oct 5.3 19:03:27 10° SW 19:07:39 25° W 19:11:51 10° NW visible
24 Oct 6.3 05:25:42 10° NE 05:28:11 13° E 05:30:39 10° ESE visible
24 Oct 4.2 18:25:41 10° S 18:30:33 46° W 18:35:28 10° NNW visible
25 Oct 3.1 17:48:34 10° SSE 17:53:39 84° WSW 17:58:47 10° NNW visible
25 Oct 5.9 19:30:16 10° SW 19:33:30 17° W 19:36:44 10° NW visible
